Погода в Тилбурге

Нидерланды     51°33′18″N   5°04′41″E
темп.,
°C
ветер,
м/с
пор.,
м/с
влажн.,
%
обл.,
%
осадки,
мм/ч
давл.,
гПа
погр.,
м
1 марта, пн
пн101:00+5всв49940 0.0 1035241
04:00+3всв37950 0.0 1033162
07:00+2всв36950 0.0 1034152
10:00+5всв46810 0.0 1033276
13:00+10всв46630 0.0 1033451
16:00+11всв46590 0.0 1031561
19:00+8всв47750 0.0 1031140
22:00+6в36760 0.0 1031111
2 марта, вт
вт201:00+5в33800 0.0 103251
04:00+5в34840 0.0 103061
07:00+4в36850 0.0 1031115
10:00+8вюв46710 0.0 1030284
13:00+12вюв34560 0.0 1030543
16:00+14юв24520 0.0 1029809
19:00+10вюв23670 0.0 102924
22:00+8ююв23794 0.0 103028
3 марта, ср
ср301:00+7ю23882 0.0 102930
04:00+6ю23930 0.0 102835
07:00+6ююз23949 0.0 102839
10:00+9ююз34800 0.0 1028253
13:00+14зюз34620 0.0 1027633
16:00+14з346272 0.0 1025689
19:00+10ссз238383 0.0 102436
22:00+8зюз018743 0.0 102322
4 марта, чт
чт401:00+9ююз018671 0.0 102222
04:00+8юв129490 0.6 101928
07:00+8ссз129895 3.2 101885
10:00+6с4691100 2.4 1018353
13:00+7с4684100 3.4 1018531
16:00+7с567891 0.0 1018767
19:00+6ссз477495 0.1 1019942
22:00+3ссз477461 0.0 1020746
5 марта, пт
пт501:00+3с377481 0.1 1021808
04:00+3ссв5874100 0.1 1022754
07:000ссв4107267 0.1 1024419
10:00+3ссв58550 0.0 1025883
13:00+6с465417 0.0 10261523
16:00+6с5754100 0.1 10261564
19:00+3ссв486676 0.1 1027396
22:00+1с37716 0.0 1030220